Flag for Germany Weather past 2 weeks in Halle, Saxony-Anhalt, Germany

Now
55 °F

Sunny.


Feels Like: 54 °F
Forecast: 53 / 68 °F
Wind: 6 mph from South

Location: Leipzig-Schkeuditz

Current Time: Jul 29, 2015 at 10:30:34 PM

Latest Report: Jul 29, 2015 at 9:50 PM


Visibility: 10 mi

Pressure: 29.80 "Hg

Humidity: 67%

Dew point: 45 °F

Location of HalleLocation

Historic Weather in Halle — Graph

°F

Halle temperature yesterday

Maximum temperature yesterday: 70 °F (at 3:50 PM)
Minimum temperature yesterday: 57 °F (at 6:20 AM)
Average temperature yesterday: 64 °F

Past Weeks' High & Low Weather Summary

 TemperatureHumidityPressure
High93 °F (Jul 17, 5:20 PM)100% (Jul 23, 1:50 AM)30.12 "Hg (Jul 23, 1:50 AM)
Low55 °F (Jul 26, 5:20 AM)24% (Jul 17, 5:50 PM)29.59 "Hg (Jul 25, 3:50 AM)
Average70 °F66%29.88 "Hg
* Reported Jul 14 9:20 PM — Jul 29 9:20 PM, Halle, Weather by CustomWeather, © 2015

Note: Actual official high and low records may vary slightly from our data, if they occured in-between our weather recording intervals... More about our weather records

Advertising

Halle weather history for previous 24 hours

 ConditionsComfort  
Time TempWeatherWind HumidityBarometerVisibility
9:20 PM
Wed, Jul 29
55 °FSunny.7 mph67%29.80 "Hg10 mi
8:50 PM59 °FPassing clouds.8 mph59%29.77 "HgN/A
8:20 PM61 °FSunny.14 mph55%29.77 "Hg10 mi
7:50 PM63 °FPassing clouds.22 mph49%29.77 "HgN/A
7:20 PM64 °FPassing clouds.20 mph43%29.77 "HgN/A
6:50 PM63 °FSunny.18 mph49%29.77 "Hg10 mi
6:20 PM63 °FScattered showers. Broken clouds.15 mph56%29.77 "HgN/A
5:50 PM61 °FScattered showers. Broken clouds.21 mph55%29.74 "HgN/A
5:20 PM70 °FPartly sunny.16 mph38%29.71 "HgN/A
4:50 PM70 °FScattered showers. Partly sunny.21 mph38%29.71 "HgN/A
4:20 PM68 °FSunny.20 mph38%29.71 "Hg10 mi
3:50 PM70 °FSunny.22 mph33%29.71 "Hg10 mi
3:20 PM68 °FSunny.21 mph35%29.71 "Hg10 mi
2:50 PM70 °FSunny.21 mph35%29.71 "Hg10 mi
2:20 PM68 °FSunny.18 mph35%29.71 "Hg10 mi
1:50 PM70 °FSunny.21 mph40%29.71 "Hg10 mi
1:20 PM66 °FSunny.16 mph40%29.71 "Hg10 mi
12:50 PM68 °FSunny.16 mph46%29.74 "Hg10 mi
12:20 PM66 °FSunny.23 mph43%29.74 "Hg10 mi
11:50 AM68 °FPartly sunny.23 mph46%29.74 "HgN/A
11:20 AM64 °FBroken clouds.17 mph52%29.74 "HgN/A
10:50 AM64 °FBroken clouds.16 mph60%29.74 "HgN/A
10:20 AM61 °FBroken clouds.14 mph68%29.77 "HgN/A
9:20 AM61 °FPartly sunny.14 mph63%29.77 "HgN/A
8:50 AM59 °FPartly sunny.13 mph68%29.77 "HgN/A
8:20 AM59 °FPartly sunny.16 mph68%29.77 "HgN/A
7:50 AM59 °FPartly sunny.16 mph63%29.77 "HgN/A
7:20 AM59 °FPassing clouds.15 mph63%29.77 "HgN/A
6:50 AM57 °FPassing clouds.14 mph67%29.77 "HgN/A
6:20 AM55 °FClear.13 mph72%29.77 "Hg10 mi
5:50 AM55 °FClear.14 mph72%29.77 "Hg10 mi
5:20 AM57 °FClear.13 mph67%29.77 "Hg10 mi
4:50 AM57 °FPassing clouds.10 mph72%29.77 "HgN/A
4:20 AM59 °FPassing clouds.9 mph68%29.77 "HgN/A
3:50 AM59 °FPassing clouds.9 mph68%29.77 "HgN/A
3:20 AM61 °FClear.10 mph63%29.77 "Hg10 mi
2:50 AM59 °FClear.9 mph68%29.77 "Hg10 mi
2:20 AM59 °FClear.13 mph68%29.77 "Hg10 mi
1:50 AM59 °FClear.13 mph68%29.77 "Hg10 mi
1:20 AM61 °FClear.12 mph63%29.77 "Hg10 mi
12:50 AM61 °FClear.12 mph63%29.77 "Hg10 mi
11:20 PM
Tue, Jul 28
61 °FClear.13 mph63%29.77 "Hg10 mi
10:50 PM61 °FClear.7 mph63%29.77 "Hg10 mi
10:20 PM61 °FClear.8 mph63%29.77 "Hg10 mi
Weather by CustomWeather, © 2015

See weather overviewHow to use our weather pages